Regional Weather Roundup
Issued by NWS

Home | Current Version | Previous Version | Graphics & Text | Print | Product List | Glossary On
Versions: 1 2 3 4 5 6 7 8 9 10 11 12 13 14 15 16 17 18 19 20 21 22 23 24 25 26 27 28 29 30 31 32 33 34 35 36 37 38 39 40 41 42 43 44 45 46 47 48 49 50
000
ASUS43 KMKX 221421
RWRWI

WISCONSIN REGIONAL WEATHER ROUNDUP
NATIONAL WEATHER SERVICE MILWAUKEE/SULLIVAN WI
800 AM CST WED FEB 22 2017

NOTE: "FAIR" INDICATES FEW OR NO CLOUDS BELOW 12,000 FEET WITH NO
SIGNIFICANT WEATHER AND/OR OBSTRUCTIONS TO VISIBILITY.

WIZ001-002-006>008-014>016-023>028-221500-
NORTHWEST WISCONSIN

CITY           SKY/WX    TMP DP  RH WIND       PRES   REMARKS
SUPERIOR ARPT  CLOUDY    33  33 100 CALM      29.65R FOG
ASHLAND        FAIR      34  33  96 S7        29.65R WCI  28
HAYWARD        MOCLDY    34  33  96 NE7       29.61F FOG     WCI  28
SIREN          FOG       35  35 100 N3        29.61S VSB 1/2
CUMBERLAND     FOG       34  32  93 E3        29.59F VSB 1/2
RICE LAKE      CLOUDY    35  35  99 CALM      29.61S FOG
CHETEK         MOCLDY    34  34 100 CALM      29.61R FOG
LADYSMITH      PTSUNNY   38  36  94 NE6       29.63R WCI  33
EAU CLAIRE     FAIR      41  37  86 N3        29.60R
MENOMONIE      FAIR      39  37  92 CALM      29.60F
NEW RICHMOND   FAIR      36  36 100 CALM      29.62R FOG
OSCEOLA        FOG       34  34 100 SE3       29.62  VSB<1/4
$$

WIZ003>005-009-010-017-018-221500-
NORTH CENTRAL WISCONSIN

CITY           SKY/WX    TMP DP  RH WIND       PRES   REMARKS
MANITOWISH WTR FAIR      35  35 100 CALM      29.63S
ARBOR VITAE    FAIR      37  35  93 CALM        N/A
WOODRUFF       FAIR      37  35  93 CALM        N/A
RHINELANDER    FAIR      41  37  86 CALM      29.62F
EAGLE RIVER    FAIR      37  35  90 CALM      29.63F
LAND O LAKES   FAIR      38  33  85 CALM      29.66R
PHILLIPS       PTSUNNY   38  37  96 CALM      29.61S
TOMAHAWK       PTSUNNY   35  33  92 CALM      29.62F
MEDFORD        DRIZZLE   39  35  85 E5        29.58F
MERRILL        NOT AVBL
$$

WIZ029-030-035-036-043>047-221500-
CENTRAL WISCONSIN

CITY           SKY/WX    TMP DP  RH WIND       PRES   REMARKS
WAUSAU         CLOUDY    41  36  82 SE8       29.58F
MOSINEE        MOSUNNY   39  37  93 CALM      29.63F
MARSHFIELD     FAIR      43  35  73 CALM      29.61F
STEVENS POINT  FAIR      40  37  89 SE3       29.63F
WAUPACA        PTSUNNY   46  42  86 SE6       29.65F
WAUTOMA        FAIR      33  32  96 CALM      29.67F
WISC RAPIDS    FAIR      47  39  74 S5        29.64F
CAMP DOUGLAS   MOSUNNY   48  39  71 S9        29.63F
$$

WIZ011>013-019>022-031-037>040-048>050-221500-
NORTHEAST WISCONSIN

CITY           SKY/WX    TMP DP  RH WIND       PRES   REMARKS
ANTIGO         PTSUNNY   36  34  92 CALM      29.63F
SHAWANO        PTSUNNY   42  37  84 CALM      29.64F
OCONTO         FAIR      38  37  94 CALM      29.66F
STURGEON BAY   FAIR      43  40  89 SW6       29.69F
GREEN BAY      FAIR      43  42  97 S3        29.68F
MANITOWOC      FAIR      39  38  96 SE5       29.70F FOG
APPLETON       PTSUNNY   39  39 100 S6        29.67F WCI  35
CLINTONVILLE   LGT RAIN  41  37  87 S8        29.64F
OSHKOSH        FAIR      45  43  93 S12       29.67F FOG
$$

WIZ032>034-041-042-053>061-221500-
SOUTHWEST WISCONSIN

CITY           SKY/WX    TMP DP  RH WIND       PRES   REMARKS
LA CROSSE      FAIR      47  36  65 S9        29.63F
SPARTA         FAIR      53  36  53 SW8       29.62F
VIROQUA        FAIR      49  36  61 S8        29.64F
BOSCOBEL       FAIR      37  35  92 CALM      29.69S
PRAIRIE DU CHI FAIR      43  38  80 CALM      29.68S
PLATTEVILLE    CLOUDY    46  46 100 S13       29.70F VSB<1/4
$$

WIZ056-057-062-063-064-067-068-221500-
SOUTH CENTRAL WISCONSIN

CITY           SKY/WX    TMP DP  RH WIND       PRES   REMARKS
REEDSBURG      FAIR      50  44  79 SW6       29.66F
BARABOO/DELLS  FAIR      51  42  70 CALM      29.67F
LONE ROCK      FAIR      47  43  86 E3        29.69F
MINERAL POINT  FOG       46  46 100 S9        29.70F VSB<1/4
MADISON        FAIR      49  47  93 S10       29.70F FOG
MIDDLETON      FAIR      52  48  84 SW9G16    29.70F
WATERTOWN      CLOUDY    50  50 100 S7        29.73S FOG
MONROE         DRZL/FOG  48  48 100 S14       29.73F VSB<1/4
JANESVILLE     CLOUDY    54  54 100 SW12      29.74F FOG
$$

WIZ051-052-058>065-066-070>072-221500-
SOUTHEAST WISCONSIN

CITY           SKY/WX    TMP DP  RH WIND       PRES   REMARKS
MILWAUKEE      CLOUDY    53  51  93 SW14G24   29.75F FOG
WAUKESHA       CLOUDY    52  52 100 SW7       29.76S FOG
MILWAUKEE/TIMM CLOUDY    52  50  93 SW8       29.76S FOG
RACINE         CLOUDY    53  52  96 SW12      29.77S FOG
KENOSHA        FOG       53  52  96 SW9       29.76F VSB 1
FOND DU LAC    FAIR      50  44  80 S10       29.69F
SHEBOYGAN      FAIR      50  46  86 SW9       29.70F
WEST BEND      FAIR      52  50  93 SW7       29.73S
JUNEAU         FOG       47  47  99 S9        29.73F VSB 1
$$

LSZ147-162-221500-
LAKE SUPERIOR

STATION/POSITION TIME  TEMP    WIND        PRES    WAVE
                       AIR SEA DIR/SP/G            HT/PER
                 (UTC) (F)     (DEG/KT/KT) (MB)    (FT/S)
DEVILS ISLAND    1400   36     240/  2/  3 1004.3R
PORT WING        1400   34     200/  1/  5 1004.7
SAXON HARBOR     1330   33     330/  1/  3 1003.4F
$$

LMZ867-665-643>646-221500-
LAKE MICHIGAN

STATION/POSITION TIME  TEMP    WIND        PRES    WAVE
                       AIR SEA DIR/SP/G            HT/PER
                 (UTC) (F)     (DEG/KT/KT) (MB)    (FT/S)
CHAMBERS ISLAND  1340   45     170/  5/ 12 1004.7R
NORTHPORT PIER   1340   41     170/  3/  8 1005.4R
SISTER BAY       1335   42     140/  6/  8   N/A
ALGOMA LAKESHORE 1140          220/  7/ 10   N/A
KEWAUNEE LAKESHO 1354   38     180/  5/  6 1005.4R
SHEBOYGAN LAKESH 1400   38     170/ 15/ 16 1006.1F
PORT WASHINGTON  1330   45     250/  2/  3 1007.8S
MILWAUKEE LAKESH 1400   52     240/ 17/ 19   N/A
KENOSHA   LAKESH 1400   53     250/ 10/ 15 1008.5
$$

TC  - TEMPERATURE IN CELSIUS
VSB - VISIBILITY IN STATUTE MILES
WCI - WIND CHILL INDEX
HX  - HEAT INDEX




USA.gov is the U.S. government's official web portal to all federal, state and local government web resources and services.